Regional Weather Roundup
Issued by NWS

Home | Current Version | Previous Version | Graphics & Text | Print | Product List | Glossary Off
Versions: 1 2 3 4 5 6 7 8 9 10 11 12 13 14 15 16 17 18 19 20 21 22 23 24 25 26 27 28 29 30 31 32 33 34 35 36 37 38 39 40 41 42 43 44 45 46 47 48 49 50

000
ASUS45 KPSR 271210
RWRAZ

ARIZONA REGIONAL HOURLY WEATHER ROUNDUP
NATIONAL WEATHER SERVICE PHOENIX AZ
500 AM MST TUE JAN 27 2015

NOTE: FAIR INDICATES FEW OR NO CLOUDS BELOW 12,000 FEET WITH NO
SIGNIFICANT WEATHER AND/OR OBSTRUCTIONS TO VISIBILITY.

AZZ001>003-036-271300-
NORTHWEST ARIZONA

CITY           SKY/WX    TMP DP  RH WIND       PRES   REMARKS
BULLHEAD CITY  CLOUDY    54  54 100 CALM      30.22S
KINGMAN        CLOUDY    46  44  93 SW3       30.22R
6HR MIN TEMP:  46; 6HR MAX TEMP:  53; 6HR PCP:  0.10;

$$

AZZ004>008-015-016-018-271300-
NORTH CENTRAL ARIZONA

CITY           SKY/WX    TMP DP  RH WIND       PRES   REMARKS
GRAND CANYON   CLOUDY    38  37  97 CALM      30.29S
6HR MIN TEMP:  38; 6HR MAX TEMP:  47; 6HR PCP:  0.07;

PRESCOTT       RAIN      44  42  93 S5        30.26R FOG
6HR MIN TEMP:  44; 6HR MAX TEMP:  48; 6HR PCP:  0.11;

FLAGSTAFF      LGT RAIN  38  35  89 CALM      30.31R FOG
6HR MIN TEMP:  37; 6HR MAX TEMP:  40; 6HR PCP:  0.01;

PAYSON         MOCLDY    46  34  61 CALM      30.31R
$$

AZZ009>014-017-271300-
NORTHEAST ARIZONA

CITY           SKY/WX    TMP DP  RH WIND       PRES   REMARKS
WINSLOW        MOCLDY    40  33  76 SE6       30.29R
6HR MIN TEMP:  38; 6HR MAX TEMP:  40; 6HR PCP: TRACE;

SAINT JOHNS    LGT RAIN  39  36  89 CALM      30.30S
6HR MIN TEMP:  33; 6HR MAX TEMP:  44; 6HR PCP:  0.01;

WINDOW ROCK    PTCLDY    28  23  81 CALM      30.34S
6HR MIN TEMP:  25; 6HR MAX TEMP:  33;

SHOW LOW       CLEAR     36  28  75 SW7       30.34R WCI  30
$$

AZZ023-271300-
GREATER PHOENIX AREA

CITY           SKY/WX    TMP DP  RH WIND       PRES   REMARKS
PHOENIX        MOCLDY    57  50  77 W6        30.18R
6HR MIN TEMP:  55; 6HR MAX TEMP:  59; 6HR PCP:  0.01;

BUCKEYE          N/A     52  52 100 N5        30.18F
LUKE AFB       NOT AVBL
                              51  90 W3        30.19R
6HR MIN TEMP:  54; 6HR MAX TEMP:  59; 6HR PCP: TRACE;

SCOTTSDALE     MOCLDY    54  50  86 CALM      30.20S
6HR MIN TEMP:  54; 6HR MAX TEMP:  58; 6HR PCP:  0.01;

MESA-GATEWAY   MOCLDY    52  48  87 E6        30.20S
$$

AZZ027-028-271300-
SOUTHWEST MARICOPA COUNTY AND PINAL COUNTY

CITY           SKY/WX    TMP DP  RH WIND       PRES   REMARKS
CASA GRANDE    CLOUDY    54  46  76 CALM      30.19S
6HR MIN TEMP:  52; 6HR MAX TEMP:  54;

GILA BEND      FAIR      51  50  96 NE3       30.17S
6HR MIN TEMP:  51; 6HR MAX TEMP:  53; 6HR PCP:  0.13;

$$

AZZ503-504-507>509-271300-
SOUTHEAST ARIZONA

CITY           SKY/WX    TMP DP  RH WIND       PRES   REMARKS
TUCSON         PTCLDY    52  44  74 SE8       30.22S
6HR MIN TEMP:  50; 6HR MAX TEMP:  56;

DAVIS-MONTHAN  PTCLDY    56  40  56 SE12      30.20S
6HR MIN TEMP:  50; 6HR MAX TEMP:  56;

NOGALES        PTCLDY    48  44  86 NE6       30.23S
6HR MIN TEMP:  47; 6HR MAX TEMP:  52;

SIERRA VISTA   PTCLDY    46  39  76 CALM      30.26F
DOUGLAS        CLOUDY    48  30  49 N8        30.27S
6HR MIN TEMP:  41; 6HR MAX TEMP:  54;

SAFFORD        MOCLDY    48  37  65 E7        30.25S
6HR MIN TEMP:  48; 6HR MAX TEMP:  56; 6HR PCP: TRACE;

$$

AZZ020-021-025-026-031-271300-
SOUTHWEST ARIZONA

CITY           SKY/WX    TMP DP  RH WIND       PRES   REMARKS
YUMA           CLOUDY    57  52  83 N10       30.17S
6HR MIN TEMP:  56; 6HR MAX TEMP:  57;

$$

CAZ031-033-041-043-047-048-061-271300-
SOUTHERN CALIFORNIA

CITY           SKY/WX    TMP DP  RH WIND       PRES   REMARKS
DOWNTOWN L.A.  CLOUDY    58  53  84 CALM      30.12S
6HR MIN TEMP:  57; 6HR MAX TEMP:  59; 6HR PCP: TRACE;

L.A. AIRPORT   MOCLDY    55  53  93 CALM      30.13S
6HR MIN TEMP:  54; 6HR MAX TEMP:  58; 6HR PCP: TRACE;

SAN DIEGO      MOCLDY    56  50  80 CALM      30.13S
6HR MIN TEMP:  56; 6HR MAX TEMP:  58;

BURBANK        LGT RAIN  54  53  97 CALM      30.13R
6HR MIN TEMP:  54; 6HR MAX TEMP:  55; 6HR PCP: TRACE;

ONTARIO        CLOUDY    56  53  90 CALM      30.13S
6HR MIN TEMP:  54; 6HR MAX TEMP:  56; 6HR PCP: TRACE;

RIVERSIDE      CLOUDY    55  53  93 CALM      30.14S FOG
6HR MIN TEMP:  53; 6HR MAX TEMP:  55; 6HR PCP:  0.01;

PALM SPRINGS   CLOUDY    58  55  90 N3        30.20R
6HR MIN TEMP:  57; 6HR MAX TEMP:  58;

EL CENTRO NAS  CLOUDY    55  54  96 W3        30.17S FOG
6HR MIN TEMP:  54; 6HR MAX TEMP:  57;

IMPERIAL       FOG       52  52 100 W5        30.17R VSB 1/4
6HR MIN TEMP:  52; 6HR MAX TEMP:  57;

BLYTHE         CLOUDY    54  54 100 N6        30.19S
6HR MIN TEMP:  54; 6HR MAX TEMP:  55; 6HR PCP:  0.01;

NEEDLES        CLOUDY    55  51  86 CALM      30.21S
6HR MIN TEMP:  53; 6HR MAX TEMP:  55; 6HR PCP:  0.12;

$$

NVZ020-UTZ003-271300-
SOUTHERN NEVADA-UTAH

CITY           SKY/WX    TMP DP  RH WIND       PRES   REMARKS
LAS VEGAS      CLOUDY    52  47  83 S5        30.17S
6HR MIN TEMP:  51; 6HR MAX TEMP:  56; 6HR PCP:  0.14;

SALT LAKE CITY PTCLDY    30  29  96 S5        30.18F FOG     WCI  25
6HR MIN TEMP:  29; 6HR MAX TEMP:  35;

$$

NMZ009-TXZ055-271300-
NEW MEXICO-WEST TEXAS

CITY           SKY/WX    TMP DP  RH WIND       PRES   REMARKS
ALBUQUERQUE    PTCLDY    36  26  67 N10       30.32S WCI  28
6HR MIN TEMP:  34; 6HR MAX TEMP:  43;

EL PASO        CLOUDY    47  35  63 NE6       30.27F
6HR MIN TEMP:  47; 6HR MAX TEMP:  50; 6HR PCP: TRACE;

$$


........................KEY........................
SKY/WX - SKY CONDITION/WEATHER
TMP    - TEMPERATURE IN FAHRENHEIT
DP     - DEW POINT IN FAHRENHEIT
RH     - RELATIVE HUMIDITY IN PERCENT
WIND   - DIRECTION AND SPEED IN MILES PER HOUR (MPH)
VRB    - VARIABLE WIND DIRECTION
PRES   - MEAN SEA LEVEL PRESSURE IN INCHES OF MERCURY
         F - FALLING PRESSURE   R - RISING PRESSURE
         S - STEADY PRESSURE
VSB    - VISIBILITY IN MILES
HX     - HEAT INDEX IN FAHRENHEIT
WCI    - WIND CHILL INDEX IN FAHRENHEIT
TC     - TEMPERATURE IN CELSIUS WHICH IS ALSO KNOWN AS
         TEMPERATURE IN CENTIGRADE
AFB    - AIR FORCE BASE
         LUKE AFB IS LUKE AIR FORCE BASE
         DAVIS-MONTHAN IS DAVIS-MONTHAN AIR FORCE BASE
NAS    - NAVAL AIR STATION
         EL CENTRO NAS IS EL CENTRO NAVAL AIR STATION
N/A    - NOT AVAILABLE


USA.gov is the U.S. government's official web portal to all federal, state and local government web resources and services.